• Processing (Info)

  • MPEC 2019-U153 : 2010 JU34

    The following Minor Planet Electronic Circular may be linked-to from your own Web pages, but must not otherwise be redistributed electronically.

    A form allowing access to any MPEC is at the bottom of this page.


    Read MPEC 2019-U152 Read MPEC 2019-U154


    M.P.E.C. 2019-U153                             Issued 2019 October 25, 04:06 UT
    
         The Minor Planet Electronic Circulars contain information on unusual
             minor planets and routine data on comets.  They are published
        on behalf of Division F of the International Astronomical Union by the
              Minor Planet Center, Smithsonian Astrophysical Observatory,
                              Cambridge, MA 02138, U.S.A.
    
                 Prepared using the Tamkin Foundation Computer Network
    
                                  MPC@CFA.HARVARD.EDU
                URL https://www.minorplanetcenter.net/    ISSN 1523-6714
    
                                    2010 JU34                                
    
    
                               Revision to MPEC 2010-J56                            
    
    Additional Observations:
         K10J34U  C2019 10 22.42841300 53 04.644+42 36 34.29         21.35wUEU153F51
         K10J34U  C2019 10 22.43963900 53 04.346+42 35 38.15         21.73wUEU153F51
         K10J34U  C2019 10 22.45085900 53 04.018+42 34 42.42         21.68wUEU153F51
         K10J34U IC2019 10 22.91360000 52 58.39 +41 56 06.8          21.5 GVEU153L01
         K10J34U KC2019 10 22.91624900 52 58.38 +41 55 53.2          21.4 GVEU153L01
         K10J34U KC2019 10 22.91890300 52 58.30 +41 55 40.1          21.6 GVEU153L01
         K10J34U pC2019 10 22.92289400 52 58.15 +41 55 20.3          21.8 GVEU153L01
         K10J34U KC2019 10 23.15748600 52 55.57 +41 35 43.8          21.7 VuEU153H21
         K10J34U KC2019 10 23.16330000 52 55.46 +41 35 14.3          21.9 VuEU153H21
         K10J34U KC2019 10 23.16795100 52 55.34 +41 34 50.7          21.6 VuEU153H21
         K10J34U  C2019 10 24.13059700 52 45.09 +40 13 09.6          21.5 GVEU153H01
         K10J34U  C2019 10 24.13586200 52 44.99 +40 12 42.9          21.0 GVEU153H01
         K10J34U  C2019 10 24.14614500 52 44.77 +40 11 50.5          21.2 GVEU153H01
         K10J34U  C2019 10 24.15296100 52 44.63 +40 11 15.6          21.1 GVEU153H01
         K10J34U  C2019 10 25.13606 00 52 35.79 +38 46 11.5                VEU153I52
         K10J34U  C2019 10 25.14122 00 52 35.71 +38 45 44.3                VEU153I52
         K10J34U  C2019 10 25.14639 00 52 35.62 +38 45 18.2          21.2 GVEU153I52
         K10J34U  C2019 10 25.15156 00 52 35.54 +38 44 50.4                VEU153I52
    
    Observer details:
    F51 Pan-STARRS 1, Haleakala.  Observers J. Bulger, T. Lowe, A. Schultz, M. 
       Willman.  Measurers K. Chambers, S. Chastel, T. de Boer, L. Denneau, J. 
       Fairlamb, H. Flewelling, M. Huber, C.-C. Lin, E. Magnier, Y. Ramanjooloo, R. 
       Wainscoat, R. Weryk.  1.8-m Ritchey-Chretien + CCD.
    H01 Magdalena Ridge Observatory, Socorro.  Observers W. H. Ryan, E. V. Ryan.  
        Measurer W. H. Ryan.  2.4-m f/8.9 Ritchey-Chretien + CCD.
    H21 Astronomical Research Observatory, Westfield.  Observer R. Holmes.  
        Measurers S. Foglia, L. Buzzi, T. Linder, R. Holmes.  0.76-m f/3.0 
       astrograph + CCD.
    I52 Steward Observatory, Mt. Lemmon Station.  Observers R. A. Kowalski, K. W. 
       Wierzchos.  Measurers E. J. Christensen, G. A. Farneth, D. C. Fuls, A. R. 
       Gibbs, A. D. Grauer, H. Groeller, R. A. Kowalski, S. M. Larson, G. J. 
       Leonard, T. A. Pruyne, D. Rankin, R. L. Seaman, F. C. Shelly, K. W. 
       Wierzchos.  1.0-m reflector + CCD.
    L01 Visnjan Observatory, Tican.  Observer K. Korlevic.  1.0-m f/2.9 reflector + 
       CCD.
    
    First and last observations above in comparison with prediction:
    Residuals in seconds of arc (or two decimals in degrees), reference and Delta-T
    191022 F51 3.21+ 0.07+    191025 I52 3.23+ 0.07+    MPO178183   +1.03 days
    
    Orbital elements:
    2010 JU34                                                Earth MOID = 0.2618 AU
    Epoch 2019 Apr. 27.0 TT = JDT 2458600.5                 Bell
    M 318.53926              (2000.0)            P               Q
    n   0.66821788     Peri.   78.02362     +0.44175851     +0.83096014
    a   1.2957583      Node   223.84601     -0.88676075     +0.46159766
    e   0.0635971      Incl.   29.22012     +0.13603231     +0.31053639
    P   1.47           H   22.3           G   0.15           U   4
    Residuals in seconds of arc
    100508 G96  0.7-  0.2+    100511 474  0.1-  0.0     191022 F51  0.1+  0.2-
    100508 G96  0.4-  0.1-    100511 474  0.1-  0.4+    191022 F51  0.0   0.1+
    100508 G96  0.1-  0.3+    100511 474  0.4+  0.1+    191022 L01  0.1-  0.4+
    100508 H01  0.4+  0.3-    100511 474  0.1-  0.6-    191022 L01  0.5+  0.1+
    100508 H01  0.6+  0.1-    100516 291  0.1-  0.0     191022 L01  0.3+  0.3+
    100508 H01  0.2+  0.3-    100516 291  0.6+  0.2+    191022 L01  0.3-  0.5+
    100508 H01  0.2+  0.1-    100516 291  0.6+  1.1-    191023 H21  0.5-  0.4+
    100509 H21  0.1-  0.4-    100517 291  0.3-  0.0     191023 H21  0.2-  0.1+
    100509 H21  0.2-  0.6-    100517 291  0.4+  0.7-    191023 H21  0.2-  0.2-
    100509 H21  0.2-  0.2+    100517 291  1.0+  1.4+    191024 H01  0.1+  0.2+
    100509 G96  0.6-  0.1+    100521 291  0.3+  0.4-    191024 H01  0.2+  0.2+
    100509 G96  0.3-  0.1+    100521 291  0.3+  0.3+    191024 H01  0.0   0.1+
    100509 G96  0.7-  0.2+    100521 291  0.6-  0.4-    191024 H01  0.0   0.1-
    100509 474  0.3-  0.7+    100531 H21  0.7-  0.6-    191025 I52  0.2-  0.1+
    100509 474  0.1-  0.3+    100531 H21  0.4-  0.6+    191025 I52  0.1-  0.4-
    100509 474  0.2+  0.0     100531 H21  0.7+  0.3+    191025 I52  0.0   0.3+
    100509 474  0.1+  0.6+    191022 F51  0.1-  0.1-    191025 I52  0.1+  0.7-
    
    Ephemeris:
    2010 JU34                a,e,i = 1.30, 0.06, 29                  q = 1.2134
    Date    TT    R. A. (2000) Decl.     Delta      r    Elong.  Phase     V
    2019 09 25    01 07 20.4 +65 56 45   0.4565  1.2579   113.7    46.9    22.9
    ...
    2019 10 10    00 58 42.4 +56 44 27   0.3755  1.2715   129.6    37.2    22.2
    ...
    2019 10 18    00 54 32.4 +48 21 09   0.3427  1.2791   140.3    29.8    21.8
    ...
    2019 10 24    00 52 45.2 +40 24 25   0.3272  1.2848   148.3    24.0    21.5
    2019 10 25    00 52 35.6 +38 58 08   0.3256  1.2858   149.5    23.1    21.5
    2019 10 26    00 52 28.6 +37 30 19   0.3243  1.2867   150.6    22.3    21.5
    ...
    2019 11 01    00 52 41.7 +28 23 29   0.3232  1.2925   154.8    19.1    21.4
    ...
    2019 11 09    00 55 25.7 +16 28 09   0.3404  1.3002   151.6    21.3    21.6
    ...
    2019 11 24    01 06 51.0 -00 32 09   0.4215  1.3143   133.7    32.9    22.4
    
    A. U. Tomatic                (C) Copyright 2019 MPC           M.P.E.C. 2019-U153
    


    Read MPEC 2019-U152 Read MPEC 2019-U154


    MPEC number:

    Enter an MPEC number in one of the following forms:

    • 1997-B01 (the full form)
    • J97B01 (the packed version of the full form)
    • B01 (the abbreviated form)